Regional Weather Roundup
Issued by NWS Cleveland, OH

Home | Current Version | Previous Version | Graphics & Text | Print | Product List | Glossary On
Versions: 1 2 3 4 5 6 7 8 9 10 11 12 13 14 15 16 17 18 19 20 21 22 23 24 25 26 27 28 29 30 31 32 33 34 35 36 37 38 39 40 41 42 43 44 45 46 47 48 49 50
000
ASUS41 KCLE 170710
RWRCLE
OHIO REGIONAL WEATHER ROUNDUP
NATIONAL WEATHER SERVICE CLEVELAND, OH
300 AM EDT THU AUG 17 2017

NOTE: "FAIR" INDICATES FEW OR NO CLOUDS BELOW 12,000 FEET WITH NO
SIGNIFICANT WEATHER AND/OR OBSTRUCTIONS TO VISIBILITY.

OHZ001>008-015>018-024>027-034-035-043-044-170800-
   NORTHWEST OHIO

CITY           SKY/WX    TMP DP  RH WIND       PRES   REMARKS
DEFIANCE       MOCLDY    72  66  81 E6        29.90F
FINDLAY        PTCLDY    73  67  81 SE7       29.93F
TOLEDO EXPRESS CLOUDY    70  63  78 SE3       29.92F
TOLEDO EXEC    MOCLDY    70  62  76 SE6       29.94F
LIMA           PTCLDY    73  70  90 S7        29.94F
$$

OHZ009>014-019>023-028>033-038-089-170800-
   NORTHEAST OHIO

CITY           SKY/WX    TMP DP  RH WIND       PRES   REMARKS
CLE-HOPKINS    MOCLDY    74  58  57 SE9       30.00F
CLE-LAKEFRONT  PTCLDY    73  56  54 SE8       29.97F
CUY CO. ARPT   NOT AVBL
LORAIN-ELYRIA  PTCLDY    67  56  67 S7        29.99F
ASHTABULA      PTCLDY    60  57  89 E6        30.03F
AKRON-CANTON   PTCLDY    71  59  65 SE9       30.01F
WOOSTER        PTCLDY    63  62  97 CALM      30.01F
MANSFIELD      CLEAR     71  67  87 SE8       30.00F
YOUNGSTOWN     CLOUDY    65  59  81 E6        30.03F
$$

OHZ042-051>053-060>062-070>072-077>081-170800-
  SOUTHWEST OHIO

CITY           SKY/WX    TMP DP  RH WIND       PRES   REMARKS
CINC-COVINGTON CLOUDY    75  72  90 S7        29.94F
CINC-LUNKEN    PTCLDY    75  72  90 CALM      29.94F
HAMILTON       PTCLDY    75  72  90 E3        29.94F
DAYTON         CLOUDY    77  70  79 S8        29.95F
WRIGHT-PAT AFB DRIZZLE   75  75  98 S5        29.95F
DAYTON GENERAL MOCLDY    74  71  91 S7        29.95F
WILMINGTON     PTCLDY    73  73 100 S7        29.97F
$$

OHZ036-037-039>041-045>050-054>059-063>069-073>076-082>088-170800-
  CENTRAL AND SOUTHEAST OHIO

CITY           SKY/WX    TMP DP  RH WIND       PRES   REMARKS
COLUMBUS       PTCLDY    76  71  85 SE5       29.96F
OSU AIRPORT    CLEAR     76  72  87 S5        29.97F
BOLTON FIELD   CLEAR     72  70  96 S3        29.98F
RICKENBACK AFB CLEAR     73  71  94 CALM      29.96F
NEWARK         CLEAR     71  68  90 CALM      29.98F
MARION         CLOUDY    72  67  84 S8        29.97F
LANCASTER      CLEAR     73  71  93 S3        29.98F
ZANESVILLE     CLEAR     70  67  90 CALM      29.99F
NEW PHILLY     NOT AVBL
$$




USA.gov is the U.S. government's official web portal to all federal, state and local government web resources and services.